Weather History for Redmond, OR

Change the Weather History Date:

Sunday, February 3, 2013

  Actual Average Record
Temperature  
Mean Temperature 40 °F 34 °F  
Max Temperature 57 °F 45 °F 67 °F (2005)
Min Temperature 22 °F 24 °F -11 °F (1950)
Degree Days  
Heating Degree Days 25 31  
Month to date heating degree days 83 93  
Since 1 July heating degree days 3728 3933  
Cooling Degree Days 0 0  
Month to date cooling degree days 0 0  
Year to date cooling degree days 0 0  
Moisture  
Dew Point 27 °F    
Average Humidity 65    
Maximum Humidity 100    
Minimum Humidity 30    
Precipitation  
Precipitation 0.00 in 0.02 in 0.30 in (2004)
Month to date precipitation 0.00 0.07  
Year to date precipitation 0.41 1.04  
Sea Level Pressure  
Sea Level Pressure 30.23 in    
Wind  
Wind Speed 2 mph (East)    
Max Wind Speed 8 mph    
Max Gust Speed 9 mph    
Visibility 10 miles    
Events      
T = Trace of Precipitation, MM = Missing Value Source: NWS Daily Summary

Daily Weather History Graph

Daily Weather History Graph

Search for Another Location

Airport:

Trip Planner

Search our weather history database for the weather conditions in past years. The results will help you decide how hot, cold, wet, or windy it might be!

Date:

Astronomy

Feb. 03, 2013 Rise Set
Actual Time 7:19 AM PST 5:17 PM PST
Civil Twilight 6:49 AM PST 5:48 PM PST
Nautical Twilight 6:14 AM PST 6:22 PM PST
Astronomical Twilight 5:40 AM PST 6:56 PM PST
Moon 12:54 AM PST (2/3) 10:57 AM PST (2/3)
Length of Visible Light 10h 59m
Length of Day
9h 57m
Waning Gibbous, 47% of the Moon is Illuminated
Feb 3
Waning Gibbous
Feb 9
New
Feb 17
First Quarter
Feb 25
Full
Mar 4
Last Quarter

Hourly Weather History & Observations

Time (PST) Temp. Windchill Dew Point Humidity Pressure Visibility Wind Dir Wind Speed Gust Speed Precip Events Conditions
12:56 AM 27.0 °F 21.6 °F 25.0 °F 92% 30.29 in 10.0 mi ESE 4.6 mph - N/A   Clear
1:56 AM 30.0 °F 25.2 °F 27.0 °F 88% 30.28 in 10.0 mi ESE 4.6 mph - N/A   Clear
3:56 AM 27.0 °F 21.6 °F 25.0 °F 92% 30.28 in 10.0 mi ESE 4.6 mph - N/A   Clear
4:56 AM 26.1 °F - 23.0 °F 88% 30.28 in 10.0 mi Calm Calm - N/A   Clear
5:56 AM 21.9 °F - 21.0 °F 96% 30.29 in 10.0 mi Calm Calm - N/A   Clear
6:56 AM 24.1 °F 18.2 °F 21.9 °F 91% 30.30 in 10.0 mi NNE 4.6 mph - N/A   Clear
7:56 AM 26.1 °F - 21.9 °F 84% 30.31 in 10.0 mi Calm Calm - N/A   Clear
8:56 AM 33.1 °F 27.7 °F 28.0 °F 82% 30.31 in 10.0 mi SE 5.8 mph - N/A   Clear
9:56 AM 39.9 °F - 30.0 °F 68% 30.28 in 10.0 mi Calm Calm - N/A   Clear
10:56 AM 46.0 °F - 30.0 °F 54% 30.26 in 10.0 mi Calm Calm - N/A   Clear
11:56 AM 48.9 °F - 30.0 °F 48% 30.24 in 10.0 mi East 4.6 mph - N/A   Clear
12:56 PM 53.1 °F - 27.0 °F 37% 30.21 in 10.0 mi NNE 3.5 mph - N/A   Clear
1:56 PM 55.0 °F - 28.9 °F 37% 30.17 in 10.0 mi East 4.6 mph - N/A   Clear
2:56 PM 55.0 °F - 24.1 °F 30% 30.17 in 10.0 mi Calm Calm - N/A   Clear
3:56 PM 54.0 °F - 26.1 °F 34% 30.17 in 10.0 mi Calm Calm - N/A   Clear
4:56 PM 46.0 °F - 26.1 °F 46% 30.19 in 10.0 mi Calm Calm - N/A   Clear
5:56 PM 39.9 °F - 28.0 °F 63% 30.21 in 10.0 mi Calm Calm - N/A   Clear
6:56 PM 37.9 °F 33.5 °F 28.0 °F 68% 30.21 in 10.0 mi SSE 5.8 mph - N/A   Clear
7:56 PM 39.9 °F 36.7 °F 28.0 °F 63% 30.20 in 10.0 mi SSE 4.6 mph - N/A   Scattered Clouds
8:56 PM 37.9 °F 35.5 °F 28.0 °F 68% 30.20 in 10.0 mi SE 3.5 mph - N/A   Mostly Cloudy
9:56 PM 39.0 °F - 28.0 °F 65% 30.18 in 10.0 mi Calm Calm - N/A   Overcast
10:56 PM 34.0 °F - 27.0 °F 75% 30.17 in 10.0 mi Calm Calm - N/A   Mostly Cloudy
11:56 PM 37.0 °F 33.3 °F 28.0 °F 70% 30.15 in 10.0 mi NE 4.6 mph - N/A   Scattered Clouds